Back to catalog

YAM-16

AliveCommunicationsSSO
NORAD 68992·PAYLOAD·🇺🇸 United States

Launched May 3, 2026 from Vandenberg Space Force Base

Loading…

Next Passes (next 24 hours)

TLE

FreshSource: Space-Track

Epoch: Sep 14, 2026, 12:13 UTC

1 68992U 26100N   26257.50938152  .00001100  00000-0  11497-3 0  9995
2 68992  97.7242 153.2007 0002760 179.4298 180.6924 14.91657563 20010

Track YAM-16 in real time with AllMySat

Download on the App Store